Location: Newark
(50.0306°N, 2.3272°E)
Time: 05:59:13
(UTC+00:00)

Vanguard 1 - Pass Details

Date: 12 December 2019
Orbit: 651 x 3832 km, 34.2° (Epoch: 20 January)

Event Time Altitude Azimuth Distance (km) Brightness Sun altitude
Exits shadow 03:47:12 21° 214° (SW) 6,015 13.7 -36.1°
Maximum altitude 04:02:31 43° 161° (SSE) 4,569 13.4 -33.6°
Drops below altitude 10° 04:19:29 10° 99° (E) 5,671 14.8 -30.9°
Sets 04:23:25 0° 93° (E) 6,319 15.4 -30.3°
